Location: Wien
(48.2082°N, 16.3738°E)
Time: 05:00:11
(UTC+02:00)

MOZHAYETS 4 - Pass Details

Date: 25 March 2019
Orbit: 661 x 681 km, 98.1° (Epoch: 13 October)

Event Time Altitude Azimuth Distance (km) Brightness Sun altitude
Exits shadow 00:13:25 10° 34° (NE) 2,098 10.8 -40.1°
Drops below altitude 10° 00:13:29 10° 33° (NNE) 2,108 10.8 -40.1°
Sets 00:17:06 0° 3° (N) 3,034 12.0 -40.1°
